This is the latest recevied weather packets stored in our database for station/object DG7YEO-13. If no packets are shown the sender has not sent any weather packets the latest 10 day(s).
| Time | Temp. | Humidity | Pressure | Rain* | Wind** | Luminosity | Snow |
|---|---|---|---|---|---|---|---|
| 1787993225 | 21.11° C | 69% | 1010.2 hPa | 0 mm | - | - | - |
| 1787992325 | 20.56° C | 71% | 1010.2 hPa | 0 mm | - | - | - |
| 1787991425 | 20.56° C | 72% | 1010.1 hPa | 0 mm | - | - | - |
| 1787990525 | 19.44° C | 77% | 1010 hPa | 0 mm | - | - | - |
| 1787989625 | 18.89° C | 78% | 1010 hPa | 0 mm | - | - | - |
| 1787988725 | 18.89° C | 78% | 1009.9 hPa | 0 mm | - | - | - |
| 1787987825 | 18.89° C | 79% | 1009.8 hPa | 0 mm | - | - | - |
| 1787986925 | 18.89° C | 79% | 1009.8 hPa | 0 mm | - | - | - |
| 1787986025 | 18.33° C | 81% | 1009.6 hPa | 0 mm | - | - | - |
| 1787985125 | 17.78° C | 84% | 1009.7 hPa | 0 mm | - | - | - |
| 1787984225 | 17.22° C | 87% | 1009.6 hPa | 0 mm | - | - | - |
| 1787983325 | 16.11° C | 88% | 1009.7 hPa | 0 mm | - | - | - |
| 1787982425 | 16.11° C | 88% | 1009.7 hPa | 0 mm | - | - | - |
| 1787981525 | 16.11° C | 88% | 1009.7 hPa | 0 mm | - | - | - |
| 1787980624 | 15.56° C | 89% | 1009.7 hPa | 0 mm | - | - | - |
| 1787979725 | 15.56° C | 89% | 1009.6 hPa | 0 mm | - | - | - |
| 1787978825 | 15.56° C | 89% | 1009.7 hPa | 0 mm | - | - | - |
| 1787977925 | 15.56° C | 89% | 1009.7 hPa | 0 mm | - | - | - |
| 1787977025 | 15.56° C | 89% | 1009.7 hPa | 0 mm | - | - | - |
| 1787976126 | 15.56° C | 89% | 1009.8 hPa | 0 mm | - | - | - |
| 1787975224 | 15.56° C | 90% | 1009.7 hPa | 0 mm | - | - | - |
| 1787974325 | 15.56° C | 90% | 1009.8 hPa | 0 mm | - | - | - |
| 1787973425 | 15.56° C | 90% | 1009.8 hPa | 0 mm | - | - | - |
| 1787972525 | 15.56° C | 90% | 1009.8 hPa | 0 mm | - | - | - |
| 1787971625 | 15.56° C | 91% | 1009.8 hPa | 0 mm | - | - | - |
* Rain latest hour (hover to see other rain measurements)
** Current wind speed in m/s (hover to see current wind gust speed)